Location: Gleizolles
(44.4833°N, 6.7667°E)
Time: 10:40:38
(UTC+00:00)

Envisat - Pass Details

Date: 11 December 2021
Orbit: 764 x 766 km, 98.2° (Epoch: 20 January)

Event Time Altitude Azimuth Distance (km) Brightness Sun altitude
Rises 06:10:50 0° 357° (N) 3,243 6.0 -8.4°
Reaches altitude 10° 06:14:02 10° 336° (NNW) 2,311 5.0 -7.9°
Maximum altitude 06:16:56 15° 301° (WNW) 1,951 4.5 -7.5°
Drops below altitude 10° 06:19:49 10° 266° (W) 2,303 5.0 -7.0°
Sets 06:23:00 0° 244° (WSW) 3,223 5.9 -6.5°
